Location: Guayaquil
(2.1667°S, 79.9000°W)
Time: 13:36:03
(UTC-05:00)

N. Korean satellite - Visible Passes

Search period start: 23 May 2017 00:00
Search period end: 02 June 2017 00:00
Orbit: 463 x 516 km, 97.2° (Epoch: 22 May)

Date Brightness Start Highest point End Pass type
(mag) Time Alt. Az. Time Alt. Az. Time Alt. Az.
23 May 6.5 18:56:47 10° SSE 19:00:22 77° E 19:04:01 10° N visible
24 May 7.5 18:34:26 10° SE 18:37:38 30° E 18:40:52 10° NNE visible
25 May 9.5 19:45:54 10° SW 19:48:10 16° WSW 19:50:28 10° WNW visible
26 May 8.1 19:22:03 10° S 19:25:25 36° W 19:28:49 10° NNW visible
27 May 6.5 18:59:01 10° SSE 19:02:39 86° ENE 19:06:21 10° N visible
28 May 7.4 18:36:34 10° SE 18:39:53 33° E 18:43:15 10° NNE visible
29 May 9.5 19:48:18 10° SW 19:50:25 15° WSW 19:52:32 10° WNW visible
30 May 8.3 19:24:19 10° SSW 19:27:39 33° W 19:31:01 10° NW visible
31 May 6.6 19:01:12 10° S 19:04:52 86° W 19:08:35 10° NNW visible
01 Jun 7.3 18:38:40 10° SSE 18:42:06 37° E 18:45:33 10° N visible
